This is the latest recevied weather packets stored in our database for station/object N4AN. If no packets are shown the sender has not sent any weather packets the latest 10 day(s).
| Time | Temp. | Humidity | Pressure | Rain* | Wind** | Luminosity | Snow |
|---|---|---|---|---|---|---|---|
| 1788123182 | 28.89° C | 72% | 1010 hPa | 42.16 mm | - | - | - |
| 1788122885 | 31.11° C | 74% | 1009.7 hPa | 0 mm | - | - | - |
| 1788122581 | 32.22° C | 72% | 1009.8 hPa | 0 mm | - | - | - |
| 1788122281 | 32.22° C | 72% | 1009.9 hPa | 0 mm | - | - | - |
| 1788122113 | 32.22° C | 75% | 1010 hPa | 0 mm | - | - | - |
| 1788121981 | 32.22° C | 75% | 1010 hPa | 0 mm | - | - | - |
| 1788121846 | 31.11° C | 78% | 1010.2 hPa | 0 mm | - | - | - |
| 1788121681 | 31.11° C | 78% | 1010.2 hPa | 0 mm | - | - | - |
| 1788121320 | 30.56° C | 77% | 1010.1 hPa | 0 mm | - | - | - |
| 1788121320 | 30.56° C | 77% | 1010 hPa | 0 mm | - | - | - |
| 1788121320 | 30.56° C | 76% | 1010 hPa | 0 mm | - | - | - |
| 1788120695 | 30.56° C | 76% | 1010 hPa | 0 mm | - | - | - |
| 1788120393 | 31.11° C | 76% | 1010 hPa | 0 mm | - | - | - |
| 1788120093 | 31.11° C | 76% | 1010.2 hPa | 0 mm | - | - | - |
| 1788119967 | 31.11° C | 77% | 1010.2 hPa | 0 mm | - | - | - |
| 1788119793 | 31.11° C | 77% | 1010.2 hPa | 0 mm | - | - | - |
| 1788119492 | 31.11° C | 78% | 1010.2 hPa | 0 mm | - | - | - |
| 1788119191 | 31.11° C | 78% | 1010.4 hPa | 0 mm | - | - | - |
| 1788118591 | 30.56° C | 79% | 1010.4 hPa | 0 mm | - | - | - |
| 1788118290 | 30.56° C | 78% | 1010.5 hPa | 0 mm | - | - | - |
| 1788117990 | 30.56° C | 78% | 1010.4 hPa | 0 mm | - | - | - |
| 1788117688 | 30.56° C | 78% | 1010.5 hPa | 0 mm | - | - | - |
| 1788117385 | 30.56° C | 78% | 1010.4 hPa | 0 mm | - | - | - |
| 1788117084 | 30.56° C | 78% | 1010.3 hPa | 0 mm | - | - | - |
| 1788116781 | 30.56° C | 78% | 1010.3 hPa | 0 mm | - | - | - |
* Rain latest hour (hover to see other rain measurements)
** Current wind speed in m/s (hover to see current wind gust speed)